This is the latest recevied weather packets stored in our database for station/object KC3ROS. If no packets are shown the sender has not sent any weather packets the latest 10 day(s).
| Time | Temp. | Humidity | Pressure | Rain* | Wind** | Luminosity | Snow |
|---|---|---|---|---|---|---|---|
| 1778018904 | 21.11° C | 58% | 1006.6 hPa | 0 mm | - | 73 W/m² | - |
| 1778018601 | 21.11° C | 58% | 1006.7 hPa | 0 mm | - | 77 W/m² | - |
| 1778018299 | 21.11° C | 59% | 1006.8 hPa | 0 mm | - | 78 W/m² | - |
| 1778017997 | 21.11° C | 58% | 1007 hPa | 0 mm | - | 66 W/m² | - |
| 1778017695 | 21.11° C | 58% | 1006.9 hPa | 0 mm | - | 72 W/m² | - |
| 1778017392 | 21.11° C | 57% | 1006.7 hPa | 0 mm | - | 88 W/m² | - |
| 1778017088 | 21.11° C | 57% | 1006.9 hPa | 0 mm | - | 121 W/m² | - |
| 1778016787 | 21.11° C | 57% | 1006.7 hPa | 0 mm | - | 137 W/m² | - |
| 1778016482 | 21.11° C | 57% | 1006.6 hPa | 0 mm | - | 160 W/m² | - |
| 1778016180 | 21.11° C | 56% | 1006.5 hPa | 0 mm | - | 152 W/m² | - |
| 1778015876 | 21.11° C | 57% | 1006.4 hPa | 0 mm | - | 134 W/m² | - |
| 1778015574 | 21.11° C | 57% | 1006.6 hPa | 0 mm | - | 110 W/m² | - |
| 1778015269 | 21.11° C | 57% | 1006.6 hPa | 0 mm | - | 111 W/m² | - |
| 1778014967 | 21.11° C | 57% | 1006.7 hPa | 0 mm | - | 78 W/m² | - |
| 1778014664 | 21.11° C | 58% | 1006.5 hPa | 0 mm | - | 50 W/m² | - |
| 1778014362 | 21.11° C | 57% | 1006.4 hPa | 0 mm | - | 72 W/m² | - |
| 1778014058 | 21.11° C | 58% | 1006.5 hPa | 0 mm | - | 147 W/m² | - |
| 1778013756 | 21.11° C | 58% | 1006.6 hPa | 0 mm | - | 115 W/m² | - |
| 1778013453 | 21.11° C | 60% | 1006.6 hPa | 0 mm | - | 72 W/m² | - |
| 1778013150 | 21.67° C | 59% | 1006.5 hPa | 0 mm | - | 72 W/m² | - |
| 1778012846 | 21.11° C | 57% | 1006.5 hPa | 0 mm | - | 132 W/m² | - |
| 1778012542 | 21.11° C | 57% | 1006.7 hPa | 0 mm | - | 157 W/m² | - |
| 1778012239 | 21.11° C | 58% | 1006.7 hPa | 0 mm | - | 175 W/m² | - |
| 1778011937 | 21.11° C | 57% | 1006.7 hPa | 0 mm | - | 144 W/m² | - |
| 1778011635 | 21.11° C | 58% | 1006.6 hPa | 0 mm | - | 153 W/m² | - |
* Rain latest hour (hover to see other rain measurements)
** Current wind speed in m/s (hover to see current wind gust speed)